User: anonymous   Login
Location: Unspecified
(50.1700°N, 6.8600°E)
Time: 16:13:52
(UTC+00:00)
Language:

IDEFIX/ARIANE 42P - Orbit

View from above orbital plane
View from above orbital plane
View from above satellite
View from above satellite

Ground track
Ground track

The orbit data is extracted from the following two-line orbital elements,

1 27422U 02021B   19079.90905414 -.00000024 +00000-0 +67363-5 0  9997
2 27422 098.2909 056.4759 0013128 131.2716 228.9599 14.29268806880239
Epoch (UTC): 20 March 2019 21:49:02
Eccentricity: 0.0013128
inclination: 98.2909°
perigee height: 785 km
apogee height: 803 km
right ascension of ascending node: 56.4759°
argument of perigee: 131.2716°
revolutions per day: 14.29268806
mean anomaly at epoch: 228.9599°
orbit number at epoch: 88023

The dashed part of the orbit path shows where the satellite is in the earth's shadow,  

DLR